Weather History for KMKG - September, 2013

Change the Weather History Date:

Tuesday, September 17, 2013

  Actual Average Record
Temperature  
Mean Temperature 55 °F 62 °F  
Max Temperature 69 °F 71 °F 88 °F (1955)
Min Temperature 40 °F 52 °F 36 °F (1959)
Degree Days  
Heating Degree Days 10 5  
Month to date heating degree days 47 51  
Since 1 July heating degree days 82 81  
Cooling Degree Days 0 1  
Month to date cooling degree days 66 44  
Year to date cooling degree days 605 551  
Growing Degree Days 4 (Base 50)    
Moisture  
Dew Point 43 °F    
Average Humidity 66    
Maximum Humidity 92    
Minimum Humidity 39    
Precipitation  
Precipitation 0.00 in 0.14 in 1.60 in (1987)
Month to date precipitation 0.92 2.16  
Year to date precipitation 32.17 22.74  
Snow  
Snow 0.00 in 0.00 in - ()
Month to date snowfall 0.0 0.0  
Since 1 July snowfall 0.0 0.0  
Since 1 September snowfall 0.0 0.0  
Snow Depth 0.00 in    
Sea Level Pressure  
Sea Level Pressure 30.33 in    
Wind  
Wind Speed 5 mph (ESE)    
Max Wind Speed 12 mph    
Max Gust Speed 15 mph    
Visibility 10 miles    
Events      
T = Trace of Precipitation, MM = Missing Value Source: NWS Daily Summary

Daily Weather History Graph

Daily Weather History Graph

Search for Another Location

Airport or City:

Trip Planner

Search our weather history database for the weather conditions in past years. The results will help you decide how hot, cold, wet, or windy it might be!

Date:

Astronomy

Sep. 17, 2013 Rise Set
Actual Time 7:26 AM EDT 7:50 PM EDT
Civil Twilight 6:58 AM EDT 8:19 PM EDT
Nautical Twilight 6:24 AM EDT 8:52 PM EDT
Astronomical Twilight 5:50 AM EDT 9:27 PM EDT
Moon 6:38 PM EDT (9/17) 5:18 AM EDT (9/17)
Length of Visible Light 13h 20m
Length of Day
12h 23m
Waxing Gibbous, 96% of the Moon is Illuminated
Sep 17
Waxing Gibbous
Sep 19
Full
Sep 26
Last Quarter
Oct 4
New
Oct 11
First Quarter

Hourly Weather History & Observations

Time (EDT) Temp. Windchill Dew Point Humidity Pressure Visibility Wind Dir Wind Speed Gust Speed Precip Events Conditions
12:55 AM 46.0 °F 43.1 °F 41.0 °F 83% 30.39 in 10.0 mi ESE 5.8 mph - N/A   Clear
1:55 AM 45.0 °F 41.8 °F 39.9 °F 82% 30.39 in 10.0 mi ESE 5.8 mph - N/A   Clear
2:55 AM 44.1 °F 41.5 °F 39.0 °F 82% 30.40 in 10.0 mi East 4.6 mph - N/A   Clear
3:55 AM 43.0 °F 38.8 °F 37.9 °F 82% 30.40 in 10.0 mi East 6.9 mph - N/A   Clear
4:55 AM 42.1 °F 39.2 °F 37.9 °F 85% 30.40 in 10.0 mi East 4.6 mph - N/A   Clear
5:55 AM 41.0 °F 38.0 °F 37.0 °F 86% 30.40 in 10.0 mi ESE 4.6 mph - N/A   Clear
6:55 AM 39.9 °F 36.7 °F 37.0 °F 89% 30.41 in 10.0 mi ESE 4.6 mph - N/A   Clear
7:55 AM 41.0 °F 38.0 °F 37.9 °F 89% 30.41 in 10.0 mi East 4.6 mph - N/A   Clear
8:55 AM 45.0 °F 41.2 °F 39.9 °F 82% 30.41 in 10.0 mi ESE 6.9 mph - N/A   Partly Cloudy
9:55 AM 51.1 °F - 42.1 °F 71% 30.41 in 10.0 mi ESE 9.2 mph - N/A   Scattered Clouds
10:55 AM 57.0 °F - 41.0 °F 55% 30.40 in 10.0 mi Variable 6.9 mph - N/A   Scattered Clouds
11:55 AM 60.1 °F - 41.0 °F 49% 30.38 in 10.0 mi SE 9.2 mph - N/A   Scattered Clouds
12:55 PM 61.0 °F - 42.1 °F 50% 30.36 in 10.0 mi ESE 4.6 mph - N/A   Scattered Clouds
1:55 PM 64.0 °F - 42.1 °F 45% 30.34 in 10.0 mi Variable 3.5 mph - N/A   Mostly Cloudy
2:55 PM 66.9 °F - 43.0 °F 42% 30.30 in 10.0 mi Variable 6.9 mph - N/A   Mostly Cloudy
3:55 PM 68.0 °F - 43.0 °F 40% 30.27 in 10.0 mi ESE 6.9 mph - N/A   Mostly Cloudy
4:55 PM 66.9 °F - 46.9 °F 49% 30.25 in 10.0 mi WNW 8.1 mph - N/A   Mostly Cloudy
5:55 PM 66.0 °F - 48.0 °F 52% 30.24 in 10.0 mi WNW 4.6 mph - N/A   Mostly Cloudy
6:55 PM 63.0 °F - 48.9 °F 60% 30.23 in 10.0 mi West 3.5 mph - N/A   Mostly Cloudy
7:55 PM 59.0 °F - 48.9 °F 69% 30.22 in 10.0 mi Calm Calm - N/A   Mostly Cloudy
8:55 PM 55.9 °F - 48.9 °F 77% 30.21 in 10.0 mi Calm Calm - N/A   Mostly Cloudy
9:55 PM 52.0 °F - 48.0 °F 86% 30.20 in 10.0 mi Calm Calm - N/A   Mostly Cloudy
10:55 PM 54.0 °F - 48.9 °F 83% 30.19 in 10.0 mi ESE 4.6 mph - N/A   Mostly Cloudy
11:55 PM 54.0 °F - 48.0 °F 80% 30.19 in 10.0 mi ESE 4.6 mph - N/A   Clear